South Bend, IN

8:12 PM EDT on April 27, 2017 (GMT -0400)
South Bend Regional

Weather History for KSBN - September, 2011

Change the Weather History Date:

Saturday, September 10, 2011

  Actual Average Record
Temperature  
Mean Temperature 67 °F 66 °F  
Max Temperature 77 °F 76 °F 97 °F (2013)
Min Temperature 56 °F 56 °F 35 °F (1917)
Degree Days  
Heating Degree Days 0 2  
Month to date heating degree days 24 15  
Since 1 July heating degree days 24 33  
Cooling Degree Days 2 3  
Month to date cooling degree days 56 43  
Year to date cooling degree days 942 725  
Growing Degree Days 15 (Base 50)    
Moisture  
Dew Point 59 °F    
Average Humidity 77    
Maximum Humidity 100    
Minimum Humidity 54    
Precipitation  
Precipitation T in 0.12 in 1.33 in (1947)
Month to date precipitation 0.49 1.19  
Year to date precipitation 32.67 26.46  
Snow  
Snow 0.00 in 0.00 in 0.00 in (2002)
Month to date snowfall 0.0 0.0  
Since 1 July snowfall 0.0 0.0  
Since 1 September snowfall 0.0  
Snow Depth 0.00 in    
Sea Level Pressure  
Sea Level Pressure 30.01 in    
Wind  
Wind Speed 2 mph (WNW)    
Max Wind Speed 10 mph    
Max Gust Speed 12 mph    
Visibility 5 miles    
Events Fog    
T = Trace of Precipitation, MM = Missing Value Source: NWS Daily Summary

Daily Weather History Graph

Daily Weather History Graph

Search for Another Location

Airport or City:

Trip Planner

Search our weather history database for the weather conditions in past years. The results will help you decide how hot, cold, wet, or windy it might be!

Date:

Astronomy

Sep. 10, 2011 Rise Set
Actual Time 7:20 AM EDT 8:03 PM EDT
Civil Twilight 6:52 AM EDT 8:31 PM EDT
Nautical Twilight 6:18 AM EDT 9:05 PM EDT
Astronomical Twilight 5:44 AM EDT 9:39 PM EDT
Moon 6:58 PM EDT (9/10) 5:38 AM EDT (9/10)
Length of Visible Light 13h 39m
Length of Day
12h 43m
Waxing Gibbous, 97% of the Moon is Illuminated
Sep 10
Waxing Gibbous
Sep 12
Full
Sep 20
Last Quarter
Sep 27
New
Oct 3
First Quarter

Hourly Weather History & Observations

Time (EDT) Temp. Dew Point Humidity Pressure Visibility Wind Dir Wind Speed Gust Speed Precip Events Conditions
12:42 AM 57.2 °F 57.2 °F 100% 30.00 in 0.8 mi Calm Calm - N/A   Clear
12:54 AM 57.9 °F 57.9 °F 100% 29.99 in 0.8 mi Calm Calm - N/A   Clear
1:00 AM 57.2 °F 57.2 °F 100% 29.99 in 0.2 mi Calm Calm - N/A Fog Fog
1:43 AM 59.0 °F 57.2 °F 94% 30.00 in 0.8 mi Calm Calm - N/A   Mist
1:54 AM 57.0 °F 57.0 °F 100% 29.99 in 0.5 mi Calm Calm - N/A Fog Fog
2:13 AM 57.2 °F 57.2 °F 100% 29.99 in 0.5 mi Calm Calm - N/A Fog Fog
2:42 AM 57.2 °F 57.2 °F 100% 29.98 in 3.0 mi Calm Calm - N/A   Mostly Cloudy
2:54 AM 57.0 °F 57.0 °F 100% 29.99 in 3.0 mi Calm Calm - N/A   Overcast
3:54 AM 57.9 °F 57.9 °F 100% 29.98 in 3.0 mi Calm Calm - N/A   Mostly Cloudy
4:54 AM 57.9 °F 57.0 °F 97% 29.98 in 3.0 mi South 3.5 mph - N/A   Clear
5:05 AM 57.2 °F 57.2 °F 100% 29.99 in 2.0 mi Calm Calm - N/A   Clear
5:41 AM 57.2 °F 57.2 °F 100% 30.00 in 2.0 mi Calm Calm - N/A   Scattered Clouds
5:45 AM 57.2 °F 55.4 °F 94% 30.00 in 0.5 mi Calm Calm - N/A Fog Fog
5:52 AM 57.2 °F 57.2 °F 100% 30.00 in 1.0 mi Calm Calm - N/A   Scattered Clouds
5:54 AM 57.0 °F 57.0 °F 100% 29.99 in 1.0 mi Calm Calm - N/A   Scattered Clouds
6:47 AM 57.2 °F 57.2 °F 100% 30.00 in 4.0 mi Calm Calm - N/A   Partly Cloudy
6:54 AM 55.9 °F 55.9 °F 100% 30.01 in 3.0 mi Calm Calm - N/A   Partly Cloudy
7:54 AM 57.0 °F 57.0 °F 100% 30.03 in 3.0 mi Calm Calm - N/A   Clear
8:54 AM 61.0 °F 60.1 °F 97% 30.04 in 4.0 mi Calm Calm - N/A   Mostly Cloudy
9:54 AM 62.1 °F 61.0 °F 96% 30.05 in 4.0 mi Calm Calm - N/A   Overcast
10:54 AM 64.9 °F 63.0 °F 93% 30.04 in 6.0 mi WSW 3.5 mph - N/A   Overcast
11:54 AM 66.9 °F 62.1 °F 84% 30.06 in 10.0 mi SSW 3.5 mph - N/A   Overcast
12:54 PM 68.0 °F 61.0 °F 78% 30.06 in 10.0 mi Calm Calm - N/A   Overcast
1:54 PM 70.0 °F 62.1 °F 76% 30.04 in 10.0 mi Calm Calm - N/A   Mostly Cloudy
2:54 PM 72.0 °F 61.0 °F 68% 30.04 in 10.0 mi Calm Calm - N/A   Overcast
3:54 PM 73.9 °F 57.9 °F 57% 30.02 in 10.0 mi Calm Calm - N/A   Mostly Cloudy
4:54 PM 75.0 °F 57.9 °F 55% 30.01 in 10.0 mi NNW 3.5 mph - N/A   Mostly Cloudy
5:54 PM 73.9 °F 62.1 °F 66% 30.01 in 10.0 mi WNW 5.8 mph - N/A   Overcast
6:54 PM 72.0 °F 63.0 °F 73% 30.01 in 10.0 mi NW 6.9 mph - N/A   Overcast
7:54 PM 69.1 °F 64.0 °F 84% 30.03 in 10.0 mi North 5.8 mph - N/A   Mostly Cloudy
8:54 PM 66.9 °F 64.9 °F 93% 30.02 in 8.0 mi North 5.8 mph - 0.00 in   Overcast
9:54 PM 66.9 °F 64.0 °F 90% 30.03 in 7.0 mi Calm Calm - N/A   Overcast
10:54 PM 66.0 °F 64.0 °F 93% 30.03 in 7.0 mi Calm Calm - N/A   Overcast
11:54 PM 64.0 °F 63.0 °F 96% 30.04 in 4.0 mi Calm Calm - N/A   Scattered Clouds